FW4355 Weather Reports


time (UTC)temp
C
wind
direction
speed
KPH
gust
KPH
rain 1hr
cm
rain 24hr
cm
rain mn
cm
humidity
%
barometer
mb
20260505182056 2 52 1.6 9.7 0.00 0.71 0.38 92 1009.7
20260505181549 2 70 3.2 9.7 0.00 0.71 0.38 91 1009.9
20260505181049 2 59 3.2 9.7 0.00 0.71 0.38 91 1009.8
20260505180548 2 43 4.8 9.7 0.00 0.71 0.38 92 1009.9
20260505180100 1 41 3.2 8.0 0.00 0.71 0.38 92 1009.9
20260505175551 1 53 3.2 8.0 0.00 0.71 0.38 92 1009.9
20260505175050 1 48 1.6 6.4 0.03 0.71 0.38 92 1009.9
20260505174554 1 61 1.6 8.0 0.03 0.71 0.38 92 1009.9
20260505174046 1 58 4.8 9.7 0.03 0.71 0.38 92 1009.8
20260505173547 1 71 3.2 8.0 0.05 0.71 0.38 92 1009.8
20260505173047 1 76 0.0 8.0 0.05 0.71 0.38 92 1009.7
20260505172547 2 76 3.2 8.0 0.05 0.71 0.38 91 1009.8
20260505172046 2 40 1.6 8.0 0.05 0.71 0.38 92 1009.8
20260505171549 2 40 3.2 8.0 0.05 0.71 0.38 92 1009.7
20260505171046 1 15 0.0 6.4 0.05 0.71 0.38 92 1009.7
20260505170547 1 33 1.6 8.0 0.05 0.71 0.38 92 1009.6
20260505170047 1 23 3.2 16.1 0.05 0.71 0.38 92 1009.8
20260505165545 1 343 1.6 12.9 0.05 0.71 0.38 92 1009.6
20260505165044 1 355 1.6 8.0 0.05 0.69 0.36 92 1009.6
20260505164549 1 330 3.2 9.7 0.05 0.69 0.36 91 1009.6
20260505164043 1 333 3.2 12.9 0.05 0.69 0.36 91 1009.6
20260505163542 1 299 3.2 12.9 0.03 0.66 0.33 92 1009.7
20260505163043 1 335 3.2 12.9 0.03 0.66 0.33 92 1009.8
20260505162543 1 324 3.2 12.9 0.03 0.66 0.33 91 1009.7
20260505162041 1 317 3.2 12.9 0.03 0.66 0.33 91 1009.6
20260505161549 1 321 4.8 11.3 0.05 0.66 0.33 91 1009.4
20260505161041 1 351 1.6 6.4 0.05 0.66 0.33 92 1009.5
20260505160540 1 336 1.6 8.0 0.05 0.66 0.33 91 1009.5
20260505153036 1 349 1.6 14.5 0.05 0.64 0.30 91 1009.3
20260505152537 1 355 0.0 14.5 0.05 0.64 0.30 91 1009.3
20260505152035 1 327 1.6 17.7 0.05 0.64 0.30 91 1009.3
20260505151534 1 11 4.8 17.7 0.03 0.61 0.28 91 1009.2
20260505151036 1 337 4.8 14.5 0.03 0.61 0.28 91 1009.1
20260505150534 1 339 6.4 14.5 0.03 0.61 0.28 91 1009.0
20260505140527 1 28 3.2 14.5 0.03 0.58 0.25 91 1008.8
20260505125016 1 319 9.7 27.4 0.03 0.56 0.23 91 1007.5
20260505124516 1 333 9.7 19.3 0.05 0.56 0.23 91 1007.2
20260505124013 1 334 6.4 19.3 0.05 0.56 0.23 90 1006.9
20260505123512 1 325 4.8 20.9 0.05 0.56 0.23 90 1006.9
20260505123023 1 40 8.0 19.3 0.08 0.56 0.23 90 1006.8
20260505122509 1 360 6.4 22.5 0.08 0.53 0.20 90 1006.5
20260505122008 1 5 6.4 22.5 0.08 0.53 0.20 90 1006.5
20260505121507 2 355 9.7 22.5 0.10 0.53 0.20 90 1006.5
20260505121006 2 15 8.0 19.3 0.13 0.53 0.20 90 1006.5
20260505120504 2 355 3.2 22.5 0.13 0.53 0.20 90 1006.5
20260505120013 2 40 8.0 22.5 0.13 0.53 0.20 90 1006.4
20260505115503 2 349 6.4 22.5 0.13 0.53 0.20 90 1006.3
20260505115002 2 296 11.3 25.7 0.13 0.53 0.20 90 1006.2
20260505114501 2 346 11.3 27.4 0.10 0.51 0.18 90 1006.3
20260505114101 2 323 11.3 27.4 0.10 0.51 0.18 90 1006.2
20260505113559 3 360 9.7 22.5 0.10 0.51 0.18 90 1006.1
20260505113057 3 338 12.9 22.5 0.08 0.48 0.15 90 1006.0
20260505112556 3 319 9.7 24.1 0.05 0.46 0.13 90 1006.0
20260505112055 3 327 8.0 25.7 0.05 0.46 0.13 90 1005.8
20260505111554 3 294 9.7 25.7 0.03 0.43 0.10 90 1005.8
20260505111053 3 337 11.3 25.7 0.00 0.41 0.08 90 1005.8
20260505110553 3 334 4.8 17.7 0.00 0.41 0.08 90 1005.8
20260505102040 6 347 9.7 24.1 0.00 0.41 0.08 89 1004.6
20260505101558 6 360 1.6 8.0 0.00 0.41 0.08 89 1004.4
20260505101040 6 10 1.6 4.8 0.00 0.41 0.08 89 1004.4
20260505100541 6 323 0.0 14.5 0.00 0.41 0.08 89 1004.4
20260505100057 6 322 3.2 14.5 0.00 0.41 0.08 89 1004.3
20260505095539 6 346 3.2 12.9 0.00 0.41 0.08 89 1004.4
20260505095038 6 317 4.8 12.9 0.00 0.41 0.08 89 1004.6
20260505094537 6 346 4.8 14.5 0.00 0.41 0.08 89 1004.4
20260505094037 6 346 1.6 9.7 0.00 0.41 0.08 88 1004.7
20260505093538 6 355 1.6 12.9 0.00 0.41 0.08 88 1004.4
20260505093037 6 346 4.8 9.7 0.00 0.41 0.08 88 1004.0
20260505092537 6 28 1.6 11.3 0.00 0.41 0.08 88 1003.7
20260505092037 6 32 3.2 11.3 0.00 0.41 0.08 88 1003.8
20260505091536 6 36 1.6 8.0 0.00 0.41 0.08 87 1004.1
20260505091035 6 51 0.0 3.2 0.00 0.41 0.08 87 1004.2
20260505090535 6 51 0.0 3.2 0.00 0.41 0.08 87 1004.1
20260505090034 6 51 0.0 0.0 0.00 0.41 0.08 87 1004.2
20260505085534 6 51 0.0 0.0 0.00 0.41 0.08 87 1004.1
20260505085037 6 51 0.0 0.0 0.00 0.41 0.08 87 1004.0
20260505084533 6 51 0.0 0.0 0.00 0.41 0.08 87 1004.0
20260505084032 6 51 0.0 3.2 0.00 0.41 0.08 87 1004.0
20260505083534 6 51 0.0 3.2 0.00 0.41 0.08 87 1003.9
20260505083031 6 51 0.0 3.2 0.00 0.41 0.08 87 1003.8
20260505082530 6 51 0.0 6.4 0.00 0.41 0.08 87 1003.9
20260505082029 6 51 0.0 9.7 0.00 0.41 0.08 87 1004.2
20260505081529 6 52 1.6 9.7 0.00 0.41 0.08 87 1004.2
20260505081029 6 137 0.0 6.4 0.00 0.41 0.08 87 1004.5
20260505080529 6 137 1.6 9.7 0.00 0.41 0.08 87 1004.4
20260505080037 6 167 3.2 12.9 0.00 0.41 0.08 87 1004.4
20260505075529 6 215 6.4 19.3 0.00 0.41 0.08 87 1004.4
20260505075027 6 198 8.0 19.3 0.03 0.41 0.08 88 1004.3
20260505074525 6 169 9.7 17.7 0.03 0.41 0.08 88 1004.4
20260505074025 6 175 8.0 19.3 0.05 0.41 0.08 89 1004.5
20260505073524 6 170 9.7 19.3 0.05 0.41 0.08 89 1004.5
20260505073033 6 175 9.7 16.1 0.08 0.41 0.08 89 1004.7
20260505072520 6 173 4.8 9.7 0.08 0.41 0.08 89 1005.0
20260505072021 6 181 3.2 9.7 0.08 0.41 0.08 89 1004.9
20260505071519 6 182 3.2 11.3 0.08 0.41 0.08 89 1005.2
20260505071018 6 165 4.8 12.9 0.08 0.41 0.08 89 1005.0
20260505070517 6 148 1.6 8.0 0.08 0.41 0.08 89 1005.2
20260505070017 6 148 1.6 9.7 0.08 0.41 0.08 89 1005.3
20260505065516 6 148 4.8 12.9 0.08 0.41 0.08 89 1005.3
20260505065015 6 163 6.4 12.9 0.05 0.38 0.05 89 1005.4
20260505064517 6 154 6.4 12.9 0.05 0.38 0.05 89 1005.5
20260505064012 6 148 1.6 6.4 0.03 0.36 0.03 89 1005.7
20260505063512 6 131 1.6 6.4 0.03 0.36 0.03 89 1005.7
20260505063011 6 131 1.6 6.4 0.00 0.33 0.00 89 1005.7
20260505062511 6 130 0.0 6.4 0.00 0.33 0.00 89 1005.6
20260505062010 6 130 3.2 6.4 0.00 0.33 0.00 88 1005.6
20260505061520 6 101 3.2 6.4 0.03 0.33 0.00 88 1005.6
20260505061008 6 99 1.6 6.4 0.03 0.33 0.00 88 1005.5
20260505060508 6 98 0.0 4.8 0.05 0.33 0.00 88 1005.4
20260505060008 6 98 1.6 6.4 0.05 0.33 0.33 88 1005.4
20260505055506 6 98 1.6 6.4 0.08 0.33 0.33 88 1005.4
20260505055009 6 71 0.0 4.8 0.08 0.33 0.33 88 1005.4
20260505054506 6 57 0.0 3.2 0.08 0.33 0.33 88 1005.7
20260505054005 6 57 0.0 4.8 0.13 0.33 0.33 88 1005.4
20260505053506 6 55 0.0 4.8 0.15 0.33 0.33 87 1005.2
20260505053004 6 53 0.0 4.8 0.15 0.33 0.33 87 1005.2
20260505052504 6 43 1.6 4.8 0.15 0.33 0.33 87 1005.1
20260505052006 6 33 0.0 4.8 0.15 0.33 0.33 87 1005.2
20260505051509 7 33 1.6 4.8 0.13 0.30 0.30 87 1005.5
20260505051003 7 355 1.6 6.4 0.13 0.30 0.30 87 1005.8
20260505050502 7 344 1.6 6.4 0.10 0.28 0.28 86 1006.0
20260505041553 7 237 0.0 1.6 0.13 0.18 0.18 83 1005.6
20260505041052 7 237 0.0 3.2 0.15 0.18 0.18 83 1005.4
20260505040552 7 237 0.0 3.2 0.15 0.18 0.18 82 1005.4
20260505040052 8 237 0.0 1.6 0.15 0.18 0.18 82 1005.2
20260505035551 8 237 0.0 1.6 0.15 0.18 0.18 81 1005.0
20260505035050 8 236 0.0 1.6 0.13 0.15 0.15 81 1005.0
20260505034551 8 236 0.0 1.6 0.13 0.15 0.15 80 1005.0
20260505034048 8 236 0.0 3.2 0.10 0.13 0.13 79 1004.9
20260505033549 8 236 0.0 6.4 0.08 0.10 0.10 79 1005.0
20260505033048 8 236 3.2 8.0 0.08 0.10 0.10 78 1005.2
20260505032548 8 239 1.6 8.0 0.05 0.08 0.08 77 1005.1
20260505032046 8 223 1.6 8.0 0.03 0.05 0.05 76 1005.1
20260505031551 8 227 3.2 14.5 0.00 0.03 0.03 74 1004.9
20260505031046 8 224 4.8 14.5 0.00 0.03 0.03 73 1004.7
20260505030550 8 214 4.8 9.7 0.00 0.03 0.03 72 1004.7
20260505030046 8 215 3.2 8.0 0.00 0.03 0.03 73 1004.5
20260505025546 8 194 3.2 8.0 0.00 0.03 0.03 73 1004.4
20260505025047 8 212 3.2 8.0 0.00 0.03 0.03 74 1004.3
20260505024551 8 208 3.2 8.0 0.00 0.03 0.03 74 1004.3
20260505024045 8 211 0.0 6.4 0.00 0.03 0.03 74 1004.2
20260505023545 8 211 0.0 6.4 0.00 0.03 0.03 74 1004.1
20260505023051 8 211 3.2 8.0 0.00 0.03 0.03 74 1003.9
20260505022545 8 211 3.2 8.0 0.00 0.03 0.03 73 1003.9
20260505022047 8 205 3.2 11.3 0.00 0.03 0.03 73 1003.6
20260505021545 9 205 4.8 11.3 0.00 0.03 0.03 73 1003.5
20260505021042 9 198 3.2 6.4 0.03 0.03 0.03 72 1003.4
20260505020542 9 215 1.6 6.4 0.03 0.03 0.03 71 1003.4
20260505020043 10 220 1.6 6.4 0.03 0.03 0.03 70 1003.6
20260505015541 10 220 3.2 6.4 0.03 0.03 0.03 70 1003.7
20260505015041 10 238 1.6 6.4 0.03 0.03 0.03 69 1003.5
20260505014540 10 247 0.0 3.2 0.03 0.03 0.03 67 1003.5
20260505014039 10 247 0.0 3.2 0.03 0.03 0.03 66 1003.2
20260505013539 10 247 0.0 4.8 0.03 0.03 0.03 64 1002.9
20260505013039 10 247 0.0 6.4 0.03 0.03 0.03 65 1003.2
20260505012539 10 247 3.2 8.0 0.03 0.03 0.03 64 1003.3
20260505012039 11 248 3.2 8.0 0.03 0.03 0.03 63 1003.3
20260505011542 11 316 0.0 3.2 0.03 0.03 0.03 63 1003.4
20260505011039 11 317 0.0 12.9 0.00 0.00 0.00 60 1003.5
20260505010539 11 317 1.6 12.9 0.00 0.00 0.00 58 1003.5
20260505010101 12 288 3.2 17.7 0.00 0.00 0.00 55 1003.4
20260505005538 12 348 6.4 17.7 0.00 0.00 0.00 49 1003.3
20260505005034 13 315 1.6 16.1 0.00 0.00 0.00 46 1003.2
20260505004534 13 306 3.2 17.7 0.00 0.00 0.00 45 1003.2
20260505004033 13 322 8.0 17.7 0.00 0.00 0.00 44 1003.0
20260505003532 13 338 1.6 9.7 0.00 0.00 0.00 43 1002.9
20260505003035 13 33 4.8 12.9 0.00 0.00 0.00 42 1002.9
20260505002532 13 351 1.6 9.7 0.00 0.00 0.00 41 1002.8
20260505002032 14 55 0.0 6.4 0.00 0.00 0.00 41 1002.9
20260505001532 14 54 1.6 6.4 0.00 0.00 0.00 40 1002.5
20260505001031 14 101 0.0 0.0 0.00 0.00 0.00 39 1002.4
20260505000531 14 101 0.0 0.0 0.00 0.00 0.00 39 1002.4
20260505000042 15 101 0.0 3.2 0.00 0.00 0.00 38 1002.3
20260504235534 15 101 0.0 6.4 0.00 0.00 0.00 38 1002.3
20260504235031 15 101 0.0 9.7 0.00 0.00 0.00 37 1002.2
20260504234530 15 34 4.8 12.9 0.00 0.00 0.00 36 1002.3
20260504234029 15 28 3.2 12.9 0.00 0.00 0.00 36 1002.2
20260504233529 15 71 4.8 11.3 0.00 0.00 0.00 35 1002.3
20260504233029 16 19 1.6 12.9 0.00 0.00 0.00 33 1002.3
20260504232529 16 18 4.8 17.7 0.00 0.00 0.00 32 1002.1
20260504232028 16 39 1.6 17.7 0.00 0.00 0.00 32 1001.9
20260504231528 16 318 4.8 16.1 0.00 0.00 0.00 31 1002.2
20260504231029 16 28 1.6 16.1 0.00 0.00 0.00 31 1001.9
20260504230529 16 348 3.2 19.3 0.00 0.00 0.00 31 1001.7
20260504230039 17 350 3.2 19.3 0.00 0.00 0.00 30 1001.3
20260504225528 17 32 4.8 22.5 0.00 0.00 0.00 29 1001.2
20260504225028 18 327 6.4 22.5 0.00 0.00 0.00 28 1000.7
20260504224528 18 306 0.0 8.0 0.00 0.00 0.00 27 1000.6
20260504224027 18 307 1.6 12.9 0.00 0.00 0.00 27 1000.7
20260504223528 18 336 3.2 12.9 0.00 0.00 0.00 26 1000.4
20260504223028 18 31 1.6 6.4 0.00 0.00 0.00 25 1000.4
20260504222528 18 26 3.2 6.4 0.00 0.00 0.00 25 1000.5
20260504222027 18 20 1.6 14.5 0.00 0.00 0.00 26 1000.5
20260504221539 18 360 3.2 14.5 0.00 0.00 0.00 26 1000.6
20260504221027 18 35 3.2 14.5 0.00 0.00 0.00 26 1000.4
20260504220531 18 338 3.2 24.1 0.00 0.00 0.00 25 1000.5
20260504220027 18 5 8.0 24.1 0.00 0.00 0.00 26 1000.5
20260504215527 18 21 4.8 14.5 0.00 0.00 0.00 27 1000.5
20260504215026 18 320 3.2 14.5 0.00 0.00 0.00 28 1000.6
20260504214526 18 30 3.2 16.1 0.00 0.00 0.00 27 1000.6
20260504214025 18 338 6.4 16.1 0.00 0.00 0.00 27 1000.5
20260504213524 18 348 3.2 12.9 0.00 0.00 0.00 27 1000.7
20260504213030 17 342 3.2 12.9 0.00 0.00 0.00 28 1000.9
20260504212524 18 336 4.8 12.9 0.00 0.00 0.00 27 1001.0
20260504212023 18 294 4.8 19.3 0.00 0.00 0.00 27 1000.9
20260504211527 18 344 6.4 19.3 0.00 0.00 0.00 26 1000.9
20260504211024 18 5 3.2 16.1 0.00 0.00 0.00 27 1000.9
20260504210524 18 16 4.8 20.9 0.00 0.00 0.00 27 1000.7
20260504210024 18 300 6.4 20.9 0.00 0.00 0.00 27 1000.7
20260504205524 18 339 4.8 24.1 0.00 0.00 0.00 26 1000.8
20260504205023 18 28 9.7 24.1 0.00 0.00 0.00 25 1000.7
20260504204528 19 348 4.8 17.7 0.00 0.00 0.00 26 1000.8
20260504204023 19 42 9.7 19.3 0.00 0.00 0.00 24 1000.8
20260504203524 20 355 3.2 17.7 0.00 0.00 0.00 24 1000.6
20260504203022 20 262 6.4 20.9 0.00 0.00 0.00 23 1000.7
20260504202521 21 360 8.0 20.9 0.00 0.00 0.00 22 1000.7
20260504202021 21 5 4.8 20.9 0.00 0.00 0.00 23 1000.7
20260504201523 20 360 6.4 20.9 0.00 0.00 0.00 26 1000.9
20260504201021 20 38 6.4 22.5 0.00 0.00 0.00 26 1000.9
20260504200523 19 355 8.0 22.5 0.00 0.00 0.00 26 1001.1
20260504200019 18 5 4.8 19.3 0.00 0.00 0.00 27 1001.1
20260504195519 18 55 8.0 24.1 0.00 0.00 0.00 27 1001.1
20260504195018 18 76 8.0 24.1 0.00 0.00 0.00 25 1001.1
20260504194620 19 5 8.0 20.9 0.00 0.00 0.00 25 1001.1
20260504194018 18 346 3.2 24.1 0.00 0.00 0.00 26 1001.2
20260504193520 19 19 4.8 29.0 0.00 0.00 0.00 26 1001.1
20260504193021 20 19 9.7 29.0 0.00 0.00 0.00 24 1001.2
20260504192517 20 45 8.0 22.5 0.00 0.00 0.00 24 1001.1
20260504192017 20 28 6.4 22.5 0.00 0.00 0.00 24 1001.0
20260504191529 20 19 6.4 25.7 0.00 0.00 0.00 24 1001.2
20260504191017 20 324 6.4 25.7 0.00 0.00 0.00 22 1001.0
20260504190518 21 348 11.3 25.7 0.00 0.00 0.00 21 1001.0
20260504190017 22 321 4.8 20.9 0.00 0.00 0.00 19 1000.9
20260504185516 22 107 4.8 16.1 0.00 0.00 0.00 19 1000.9
20260504185016 22 320 6.4 16.1 0.00 0.00 0.00 14 1000.8
20260504184518 22 172 6.4 14.5 0.00 0.00 0.00 14 1000.8
20260504184015 22 213 8.0 14.5 0.00 0.00 0.00 15 1000.9
20260504183515 22 35 4.8 14.5 0.00 0.00 0.00 13 1001.0
20260504183014 22 266 6.4 11.3 0.00 0.00 0.00 14 1000.9
20260504182516 22 348 3.2 19.3 0.00 0.00 0.00 15 1001.1